Regional Weather Roundup
Issued by NWS Goodland, KS

Home | Current Version | Previous Version | Text Only | Print | Product List | Glossary Off
Versions: 1 2 3 4 5 6 7 8 9 10 11 12 13 14 15 16 17 18 19 20 21 22 23 24 25 26 27 28 29 30 31 32 33 34 35 36 37 38 39 40 41 42 43 44 45 46 47 48 49 50

000
ASUS43 KGLD 241608
RWRGLD

GOODLAND FORECAST AREA HOURLY WEATHER ROUNDUP
NATIONAL WEATHER SERVICE GOODLAND KS
900 AM MST SAT FEB 24 2018

...OFFICIAL OBSERVATIONS...

CITY           SKY/WX    TMP DP  RH WIND       PRES   REMARKS
GOODLAND KS    LGT SNOW  30  28  92 W13       29.78F FOG     WCI  20
HILL CITY KS   FOG       27  27 100 NW3       29.85F VSB 1/4
IMPERIAL NEB   CLOUDY    25  24  96 S7        29.79F
MCCOOK NEB     LGT SNOW  25  24  96 S6        29.82F FOG
AKRON CO       SUNNY     29  17  61 NW18G30   29.76F WCI  16
BURLINGTON CO  PTSUNNY   29  25  85 NW18      29.79S WCI  16
LIMON CO       SUNNY     26  19  74 NW8       29.77F
$$

...UNOFFICIAL OBSERVATIONS...

CITY           SKY/WX    TMP DP  RH WIND       PRES   REMARKS
COLBY KS       CLOUDY    30  30 100 W8        29.81F
NORTON KS      FOG       25  21  86 NE3       29.82  VSB 1/2
SHARON SPRINGS   N/A     31  29  92 W12G20      N/A
KIT CARSON CO    N/A     28  26  90 CALM        N/A
$$



USA.gov is the U.S. government's official web portal to all federal, state and local government web resources and services.